Weather History for Crosby, ND

Change the Weather History Date:

Saturday, September 29, 2012

  Actual Average (KISN) Record (KISN)
Temperature  
Mean Temperature 65 °F 50 °F  
Max Temperature 84 °F 65 °F 85 °F (1967)
Min Temperature 46 °F 36 °F 13 °F (1907)
Degree Days  
Heating Degree Days 0 15  
Month to date heating degree days 260  
Since 1 July heating degree days 331  
Cooling Degree Days 0 0  
Month to date cooling degree days 24  
Year to date cooling degree days 453  
Growing Degree Days 15 (Base 50)    
Moisture  
Dew Point 36 °F    
Average Humidity 36    
Maximum Humidity 66    
Minimum Humidity 19    
Precipitation  
Precipitation 0.00 in 0.04 in 0.93 in (1937)
Month to date precipitation 1.03  
Year to date precipitation 12.15  
Snow  
Snow 0.00 in 0.00 in 1.00 in (1983)
Month to date snowfall 0.2  
Since 1 July snowfall 0.2  
Since 1 September snowfall 0.2  
Snow Depth -    
Sea Level Pressure  
Sea Level Pressure 29.90 in    
Wind  
Wind Speed 11 mph (SSW)    
Max Wind Speed 20 mph    
Max Gust Speed 25 mph    
Visibility 10 miles    
Events      
T = Trace of Precipitation, MM = Missing Value Source: NWS Daily Summary

Daily Weather History Graph

Daily Weather History Graph

Search for Another Location

Airport:

Trip Planner

Search our weather history database for the weather conditions in past years. The results will help you decide how hot, cold, wet, or windy it might be!

Date:

Astronomy

Sep. 29, 2012 Rise Set
Actual Time 7:50 AM CDT 7:35 PM CDT
Civil Twilight 7:19 AM CDT 8:06 PM CDT
Nautical Twilight 6:42 AM CDT 8:43 PM CDT
Astronomical Twilight 6:04 AM CDT 9:20 PM CDT
Moon 7:04 PM CDT (9/29) 7:26 AM CDT (9/29)
Length of Visible Light 12h 47m
Length of Day
11h 44m
Full, 100% of the Moon is Illuminated
Sep 29
Full
Sep 29
Full
Oct 8
Last Quarter
Oct 15
New
Oct 21
First Quarter

Hourly Weather History & Observations

Time (CDT) Temp. Windchill Dew Point Humidity Pressure Visibility Wind Dir Wind Speed Gust Speed Precip Events Conditions
12:15 AM 60.8 °F - 37.4 °F 42% 29.98 in 10.0 mi South 9.2 mph - N/A   Clear
12:35 AM 59.0 °F - 39.2 °F 48% 29.99 in 10.0 mi South 9.2 mph - N/A   Clear
12:55 AM 59.0 °F - 37.4 °F 45% 29.98 in 10.0 mi South 10.4 mph - N/A   Clear
1:15 AM 59.0 °F - 37.4 °F 45% 29.98 in 10.0 mi South 11.5 mph - N/A   Clear
1:35 AM 59.0 °F - 37.4 °F 45% 29.98 in 10.0 mi South 9.2 mph - N/A   Clear
1:55 AM 55.4 °F - 39.2 °F 54% 29.98 in 10.0 mi SSW 8.1 mph - N/A   Clear
2:15 AM 53.6 °F - 37.4 °F 54% 29.98 in 10.0 mi SSW 6.9 mph - N/A   Clear
2:35 AM 50.0 °F - 35.6 °F 58% 29.98 in 10.0 mi SSW 6.9 mph - N/A   Clear
2:55 AM 48.2 °F - 37.4 °F 66% 29.98 in 10.0 mi SSW 9.2 mph - N/A   Clear
3:15 AM 48.2 °F - 37.4 °F 66% 29.98 in 10.0 mi SSW 9.2 mph - N/A   Clear
3:35 AM 50.0 °F - 37.4 °F 62% 29.97 in 10.0 mi South 9.2 mph - N/A   Clear
3:55 AM 48.2 °F - 37.4 °F 66% 29.97 in 10.0 mi South 6.9 mph - N/A   Clear
4:15 AM 50.0 °F - 37.4 °F 62% 29.96 in 10.0 mi South 6.9 mph - N/A   Clear
4:35 AM 46.4 °F 42.4 °F 35.6 °F 66% 29.96 in 10.0 mi South 8.1 mph - N/A   Clear
4:55 AM 53.6 °F - 35.6 °F 51% 29.95 in 10.0 mi South 6.9 mph - N/A   Clear
5:15 AM 51.8 °F - 33.8 °F 50% 29.95 in 10.0 mi South 6.9 mph - N/A   Clear
5:35 AM 55.4 °F - 32.0 °F 41% 29.94 in 10.0 mi South 8.1 mph - N/A   Clear
5:55 AM 57.2 °F - 32.0 °F 38% 29.94 in 10.0 mi South 9.2 mph - N/A   Clear
6:15 AM 55.4 °F - 32.0 °F 41% 29.93 in 10.0 mi SSW 6.9 mph - N/A   Clear
6:35 AM 55.4 °F - 32.0 °F 41% 29.92 in 10.0 mi SSE 10.4 mph - N/A   Clear
6:55 AM 55.4 °F - 32.0 °F 41% 29.92 in 10.0 mi South 8.1 mph - N/A   Clear
7:15 AM 57.2 °F - 32.0 °F 38% 29.92 in 10.0 mi SW 6.9 mph - N/A   Clear
7:35 AM 57.2 °F - 32.0 °F 38% 29.91 in 10.0 mi South 12.7 mph - N/A   Clear
7:55 AM 55.4 °F - 32.0 °F 41% 29.91 in 10.0 mi South 12.7 mph - N/A   Clear
8:15 AM 57.2 °F - 32.0 °F 38% 29.91 in 9.0 mi South 15.0 mph - N/A   Clear
8:35 AM 55.4 °F - 32.0 °F 41% 29.91 in 10.0 mi South 15.0 mph - N/A   Clear
8:55 AM 57.2 °F - 32.0 °F 38% 29.91 in 10.0 mi South 13.8 mph - N/A   Clear
9:15 AM 57.2 °F - 32.0 °F 38% 29.91 in 10.0 mi South 12.7 mph - N/A   Clear
9:35 AM 59.0 °F - 32.0 °F 36% 29.91 in 10.0 mi South 15.0 mph - N/A   Clear
9:55 AM 62.6 °F - 32.0 °F 32% 29.90 in 10.0 mi South 18.4 mph 21.9 mph N/A   Clear
10:15 AM 62.6 °F - 33.8 °F 34% 29.90 in 9.0 mi South 17.3 mph 21.9 mph N/A   Clear
10:35 AM 66.2 °F - 35.6 °F 32% 29.90 in 9.0 mi South 17.3 mph 23.0 mph N/A   Clear
10:55 AM 68.0 °F - 35.6 °F 30% 29.90 in 9.0 mi South 17.3 mph 21.9 mph N/A   Clear
11:15 AM 69.8 °F - 35.6 °F 28% 29.89 in 9.0 mi South 16.1 mph 20.7 mph N/A   Clear
11:35 AM 71.6 °F - 35.6 °F 27% 29.89 in 9.0 mi South 19.6 mph - N/A   Clear
11:55 AM 71.6 °F - 37.4 °F 29% 29.88 in 9.0 mi South 16.1 mph 20.7 mph N/A   Clear
12:15 PM 73.4 °F - 37.4 °F 27% 29.89 in 9.0 mi South 17.3 mph 23.0 mph N/A   Clear
12:35 PM 73.4 °F - 37.4 °F 27% 29.89 in 10.0 mi SSW 15.0 mph 21.9 mph N/A   Clear
12:55 PM 75.2 °F - 37.4 °F 25% 29.88 in 8.0 mi South 12.7 mph - N/A   Clear
1:15 PM 77.0 °F - 37.4 °F 24% 29.88 in 9.0 mi South 13.8 mph - N/A   Clear
1:35 PM 77.0 °F - 37.4 °F 24% 29.88 in 9.0 mi South 16.1 mph 19.6 mph N/A   Clear
1:55 PM 78.8 °F - 39.2 °F 24% 29.87 in 9.0 mi South 15.0 mph - N/A   Clear
2:15 PM 80.6 °F - 39.2 °F 23% 29.86 in 9.0 mi South 15.0 mph - N/A   Clear
2:35 PM 80.6 °F - 39.2 °F 23% 29.86 in 10.0 mi SSW 15.0 mph - N/A   Clear
2:55 PM 80.6 °F - 37.4 °F 21% 29.85 in 9.0 mi SSW 18.4 mph - N/A   Clear
3:15 PM 82.4 °F - 37.4 °F 20% 29.85 in 9.0 mi South 13.8 mph 19.6 mph N/A   Clear
3:35 PM 82.4 °F - 39.2 °F 21% 29.85 in 10.0 mi SSW 15.0 mph 18.4 mph N/A   Clear
3:55 PM 82.4 °F - 37.4 °F 20% 29.84 in 10.0 mi SSW 17.3 mph - N/A   Clear
4:15 PM 84.2 °F - 37.4 °F 19% 29.84 in 10.0 mi SW 16.1 mph 21.9 mph N/A   Clear
4:35 PM 84.2 °F - 37.4 °F 19% 29.84 in 9.0 mi SW 11.5 mph - N/A   Clear
4:55 PM 82.4 °F - 39.2 °F 21% 29.83 in 10.0 mi SSW 16.1 mph - N/A   Clear
5:15 PM 82.4 °F - 39.2 °F 21% 29.83 in 8.0 mi SW 15.0 mph 19.6 mph N/A   Clear
5:35 PM 82.4 °F - 37.4 °F 20% 29.83 in 10.0 mi SW 15.0 mph 23.0 mph N/A   Clear
5:55 PM 82.4 °F - 37.4 °F 20% 29.83 in 10.0 mi SW 11.5 mph 17.3 mph N/A   Clear
6:15 PM 82.4 °F - 37.4 °F 20% 29.83 in 9.0 mi SW 13.8 mph - N/A   Clear
6:35 PM 80.6 °F - 39.2 °F 23% 29.84 in 10.0 mi SW 11.5 mph 17.3 mph N/A   Clear
6:55 PM 78.8 °F - 39.2 °F 24% 29.84 in 10.0 mi SW 11.5 mph - N/A   Clear
7:15 PM 75.2 °F - 39.2 °F 27% 29.84 in 10.0 mi SW 10.4 mph - N/A   Clear
7:35 PM 71.6 °F - 39.2 °F 31% 29.84 in 8.0 mi SSW 9.2 mph - N/A   Clear
7:55 PM 68.0 °F - 39.2 °F 35% 29.84 in 9.0 mi SW 10.4 mph - N/A   Clear
8:15 PM 66.2 °F - 37.4 °F 35% 29.85 in 9.0 mi SW 9.2 mph - N/A   Clear
8:35 PM 64.4 °F - 37.4 °F 37% 29.85 in 10.0 mi SW 9.2 mph - N/A   Clear
8:55 PM 64.4 °F - 37.4 °F 37% 29.85 in 8.0 mi SW 9.2 mph - N/A   Clear
9:15 PM 64.4 °F - 37.4 °F 37% 29.86 in 10.0 mi SW 10.4 mph - N/A   Clear
9:35 PM 62.6 °F - 37.4 °F 39% 29.86 in 10.0 mi SW 12.7 mph - N/A   Clear
9:55 PM 68.0 °F - 35.6 °F 30% 29.86 in 10.0 mi WSW 12.7 mph - N/A   Clear
10:15 PM 68.0 °F - 35.6 °F 30% 29.86 in 10.0 mi WSW 17.3 mph 23.0 mph N/A   Clear
10:35 PM 68.0 °F - 35.6 °F 30% 29.87 in 10.0 mi WSW 18.4 mph 21.9 mph N/A   Clear
10:55 PM 66.2 °F - 37.4 °F 35% 29.88 in 10.0 mi WSW 17.3 mph 25.3 mph N/A   Clear
11:15 PM 66.2 °F - 37.4 °F 35% 29.89 in 10.0 mi West 16.1 mph 20.7 mph N/A   Clear
11:35 PM 64.4 °F - 37.4 °F 37% 29.89 in 10.0 mi West 15.0 mph - N/A   Clear
11:55 PM 62.6 °F - 37.4 °F 39% 29.89 in 10.0 mi West 12.7 mph - N/A   Clear